Location: Clegg Observatory
(38.9178°N, 78.6069°W)
Time: 13:00:36
(UTC-04:00)

Daily predictions for brighter satellites

Satellite Brightness Start Highest point End
(mag) Time Altitude Azimuth Time Altitude Azimuth Time Altitude Azimuth
BREEZE-M DEB (TANK) 4.4 19:22:26 10° NW 19:25:21 26° N 19:32:10 10° ENE
Cosmos 1943 Rocket 2.7 19:30:05 10° NNW 19:35:38 65° WSW 19:41:10 10° S
Cosmos 1340 Rocket 2.9 19:31:45 10° N 19:35:50 89° WSW 19:39:55 10° S
ATLAS CENTAUR R/B 3.8 19:24:18 10° NW 19:40:03 66° NE 19:45:11 10° ESE
Cosmos 304 Rocket 3.7 19:37:06 10° S 19:41:50 69° ESE 19:46:37 10° NNE
COSMO-SKYMED 1 3.8 19:45:32 10° N 19:49:42 46° WNW 19:53:51 10° SW
Meteor 1-24 Rocket 4.0 19:45:57 10° N 19:51:42 49° ENE 19:57:14 10° SSE
Thor Agena Rocket 3.5 19:48:29 10° NNE 19:53:44 75° ESE 19:58:53 10° S
Cosmos 1758 Rocket 4.2 19:50:35 10° NNW 19:55:02 61° W 19:59:27 10° S
ISS -3.0 19:52:27 10° SSW 19:55:25 33° SE 19:57:35 16° ENE
Cosmos 1726 Rocket 4.4 19:53:05 10° SSW 19:57:20 53° W 20:01:36 10° N
USA 234 3.9 19:52:17 10° SSE 19:58:41 56° SW 20:05:08 10° NW
ALOS 2.5 19:56:39 10° S 20:01:18 76° WSW 20:05:59 10° NNW
BREEZE M DEB (TANK) 3.5 19:56:36 10° NW 20:04:16 57° NNE 20:06:19 20° E
Cosmos 2181 Rocket 4.4 19:58:11 10° NNW 20:04:18 67° W 20:10:21 10° S
SJ-6B 2.9 20:03:27 10° SSE 20:07:21 55° ENE 20:11:12 10° N
SJ 16-02 2.4 20:03:50 10° N 20:07:30 25° ENE 20:09:12 20° E
Cosmos 1656 Rocket 3.8 20:02:15 10° NNW 20:07:54 82° WSW 20:13:27 10° SSE
FENGYUN 3A 4.0 20:04:38 10° S 20:09:57 70° WSW 20:15:20 10° NNW
Cosmos 1953 3.5 20:11:48 22° E 20:11:51 22° E 20:15:00 10° NE
H-2A R/B 2.5 20:08:48 10° SSE 20:12:30 74° ENE 20:16:16 10° N
Cosmos 2154 Rocket 4.3 20:07:34 10° SSE 20:13:20 42° E 20:19:11 10° NNE
Cosmos 2074 Rocket 3.9 20:07:59 10° S 20:14:11 85° E 20:20:25 10° N
Cosmos 372 Rocket 4.2 20:12:08 10° N 20:17:13 48° ENE 20:20:59 17° SE
Cosmos 1125 Rocket 3.6 20:12:13 10° N 20:17:26 55° ENE 20:21:54 14° SE
FREGAT/IRIS 3.1 20:15:58 10° S 20:18:57 60° W 20:21:57 10° NNW
Cosmos 2228 4.2 20:15:15 10° SSW 20:19:26 46° W 20:23:37 10° N
Geosat 4.2 20:17:58 10° SSE 20:22:59 75° WSW 20:28:02 10° NNW
Cosmos 1356 3.9 20:19:47 10° N 20:23:04 38° ENE 20:23:36 35° E
Cosmos 1356 Rocket 3.8 20:18:55 10° NNW 20:23:12 67° W 20:27:27 10° S
Envisat 3.7 20:21:01 23° ESE 20:23:13 33° ENE 20:27:44 10° N
Cosmos 1544 3.0 20:21:23 10° S 20:24:59 88° W 20:28:37 10° N
Cosmos 2341 Rocket 4.4 20:21:23 10° SSE 20:27:01 38° E 20:32:40 10° NNE
Cosmos 1900 4.3 20:26:36 10° SSW 20:31:38 68° ESE 20:36:46 10° NE
COSMOS 2406 3.6 20:27:14 10° SSW 20:32:53 65° WNW 20:38:36 10° NNE
ATLAS 2AS CENTAUR R/B 4.0 20:26:23 10° NNW 20:33:11 29° NE 20:36:22 22° ENE
Cosmos 1766 4.1 20:32:54 10° SSW 20:36:44 52° W 20:40:33 10° N
Cosmos 1812 Rocket 3.5 20:33:11 10° S 20:37:38 83° E 20:42:07 10° N
Meteor 2-8 Rocket 4.4 20:33:40 10° N 20:39:49 89° ENE 20:45:55 10° S
Resurs 01 Rocket 1.6 20:38:07 33° SE 20:39:54 59° ENE 20:44:15 10° N
In-Cosmos 22 4.4 20:35:07 10° NNW 20:40:50 77° W 20:46:35 10° S
Cosmos 1674 3.5 20:39:19 10° N 20:41:52 33° NE 20:41:52 33° NE
NOSS 3-1 (A) 4.3 20:35:13 10° NW 20:42:58 73° WSW 20:51:13 11° SSE
GP-B 3.0 20:38:40 10° N 20:43:06 67° E 20:46:08 20° S
MOS 1-B Rocket 3.9 20:40:08 21° SE 20:44:13 59° ENE 20:49:46 10° N
Nadezhda 3 Rocket 3.9 20:38:44 10° N 20:45:01 68° E 20:50:14 15° SSE
Cosmos 2369 4.4 20:41:03 10° N 20:46:07 33° ENE 20:46:39 32° ENE
SL-27 R/B 2.6 20:46:48 10° SSW 20:50:22 75° WNW 20:54:01 10° NNE
Meteor 2-19 Rocket 4.4 20:44:44 10° S 20:50:46 83° W 20:56:52 10° N
Cosmos 540 Rocket 4.4 20:47:30 10° SW 20:52:24 48° WNW 20:57:22 10° N
Cosmos 2285 Rocket 4.1 20:48:21 10° S 20:54:29 49° ESE 21:00:38 10° NNE
Meteor 1-21 Rocket 4.2 20:49:49 10° N 20:55:29 61° ENE 20:57:04 44° SE
Cosmos 1758 3.3 20:52:32 10° S 20:56:33 84° W 21:00:34 10° N
Cosmos 1295 Rocket 4.3 20:57:25 10° S 21:03:27 66° E 21:09:29 10° NNE
Cosmos 1809 Rocket 4.4 21:03:38 43° SE 21:05:21 57° E 21:11:19 10° NNE
Okean 3 Rocket 3.9 21:04:31 10° N 21:08:04 52° NNE 21:08:04 52° NNE
Cosmos 1939 Rocket 4.2 21:13:42 30° N 21:13:42 30° N 21:15:49 10° N
SL-8 Rocket 3.9 21:14:55 58° E 21:14:55 58° E 21:20:47 10° NNE
Cosmos 292 Rocket 4.2 21:11:26 10° SSW 21:16:13 61° WNW 21:21:03 10° NNE
Cosmos 2278 3.8 21:14:53 10° NNW 21:20:04 58° NE 21:20:04 58° NE
Meteor 2-15 4.3 21:16:58 10° N 21:22:45 65° ENE 21:22:45 65° ENE
Spot 2 Rocket 4.2 21:28:02 38° SSW 21:29:32 51° W 21:34:27 10° NNW
ISS -1.0 21:29:02 10° W 21:30:17 18° WNW 21:30:17 18° WNW
Milstar 3 Cent rocket 3.8 21:28:35 10° SW 21:30:39 19° SSW 21:30:39 19° SSW
Cosmos 1656 4.1 21:31:21 10° NNW 21:35:48 52° N 21:35:48 52° N
Cosmos 1697 Rocket 3.7 21:34:49 10° NNW 21:38:32 36° NNE 21:38:32 36° NNE
Cosmos 1980 Rocket 3.8 21:37:11 10° N 21:39:51 23° NNE 21:39:51 23° NNE
SJ 16-02 3.2 21:42:23 10° NW 21:46:00 26° W 21:46:14 25° WSW
FALCON 9 R/B 4.0 22:14:10 10° W 22:15:43 24° WSW 22:15:43 24° WSW
ATLAS 2AS CENTAUR R/B 3.2 22:17:05 10° NW 22:23:48 64° WNW 22:23:48 64° WNW
